Year,Month,Day,Hour,Minute,Value (Times are PST for temperature in C)
2015,06,23,10,41,18.60
2015,06,23,10,42,18.50
2015,06,23,10,43,18.40
2015,06,23,10,44,18.50
2015,06,23,10,45,18.60
2015,06,23,10,46,18.50
2015,06,23,10,47,18.40
2015,06,23,10,48,18.20
2015,06,23,10,49,18.20
2015,06,23,10,50,18.20
2015,06,23,10,51,18.20
2015,06,23,10,52,18.30
2015,06,23,10,53,18.40
2015,06,23,10,54,18.50
2015,06,23,10,55,18.50
2015,06,23,10,56,18.40
2015,06,23,10,57,18.40
2015,06,23,10,58,18.50
2015,06,23,10,59,18.50
2015,06,23,11,00,18.40
2015,06,23,11,01,18.40
2015,06,23,11,02,18.40
2015,06,23,11,03,18.40
2015,06,23,11,04,18.40
2015,06,23,11,05,18.40
2015,06,23,11,06,18.30
2015,06,23,11,07,18.30
2015,06,23,11,08,18.40
2015,06,23,11,09,18.50
2015,06,23,11,10,18.60
2015,06,23,11,11,18.80
2015,06,23,11,12,18.90
2015,06,23,11,13,19.00
2015,06,23,11,14,19.10
2015,06,23,11,15,19.10
2015,06,23,11,16,19.10
2015,06,23,11,17,18.90
2015,06,23,11,18,18.90
2015,06,23,11,19,18.90
2015,06,23,11,20,19.00
2015,06,23,11,21,19.10
2015,06,23,11,22,19.10
2015,06,23,11,23,19.10
2015,06,23,11,24,19.10
2015,06,23,11,25,18.90
2015,06,23,11,26,18.90
2015,06,23,11,27,18.80
2015,06,23,11,28,18.90
2015,06,23,11,29,18.90
2015,06,23,11,30,19.10
2015,06,23,11,31,19.10
2015,06,23,11,32,19.20
2015,06,23,11,33,19.10
2015,06,23,11,34,19.10
2015,06,23,11,35,19.20
2015,06,23,11,36,19.10
2015,06,23,11,37,19.10
2015,06,23,11,38,19.10
2015,06,23,11,39,19.10
2015,06,23,11,40,19.10
2015,06,23,11,41,19.10
2015,06,23,11,42,19.20
2015,06,23,11,43,19.30
2015,06,23,11,44,19.40
2015,06,23,11,45,19.50
2015,06,23,11,46,19.50
2015,06,23,11,47,19.40
2015,06,23,11,48,19.20
2015,06,23,11,49,19.10
2015,06,23,11,50,19.10
2015,06,23,11,51,19.10
2015,06,23,11,52,19.10
2015,06,23,11,53,19.20
2015,06,23,11,54,19.30
2015,06,23,11,55,19.30
2015,06,23,11,56,19.30
2015,06,23,11,57,19.30
2015,06,23,11,58,19.40
2015,06,23,11,59,19.60
2015,06,23,12,00,19.70
2015,06,23,12,01,19.90
2015,06,23,12,02,20.00
2015,06,23,12,03,20.10
2015,06,23,12,04,20.20
2015,06,23,12,05,20.20
2015,06,23,12,06,20.20
2015,06,23,12,07,20.00
2015,06,23,12,08,19.90
2015,06,23,12,09,19.70
2015,06,23,12,10,19.60
2015,06,23,12,11,19.50
2015,06,23,12,12,19.50
2015,06,23,12,13,19.50
2015,06,23,12,14,19.60
2015,06,23,12,15,19.60
2015,06,23,12,16,19.60
2015,06,23,12,17,19.80
2015,06,23,12,18,19.90
2015,06,23,12,19,20.20
2015,06,23,12,20,20.30
2015,06,23,12,21,20.40
2015,06,23,12,22,20.50
2015,06,23,12,23,20.70
2015,06,23,12,24,20.70
2015,06,23,12,25,20.50
2015,06,23,12,26,20.40
2015,06,23,12,27,20.20
2015,06,23,12,28,20.10
2015,06,23,12,29,20.00
2015,06,23,12,30,19.90
2015,06,23,12,31,19.70
2015,06,23,12,32,19.70
2015,06,23,12,33,19.60
2015,06,23,12,34,19.60
2015,06,23,12,35,19.60
2015,06,23,12,36,19.50
2015,06,23,12,37,19.60
2015,06,23,12,38,19.90
2015,06,23,12,39,20.00
2015,06,23,12,40,20.00
2015,06,23,12,41,19.90
2015,06,23,12,42,19.90
2015,06,23,12,43,20.00
2015,06,23,12,44,20.10
2015,06,23,12,45,20.20
2015,06,23,12,46,20.20
2015,06,23,12,47,20.30
2015,06,23,12,48,20.30
2015,06,23,12,49,20.30
2015,06,23,12,50,20.30
2015,06,23,12,51,20.20
2015,06,23,12,52,20.20
2015,06,23,12,53,20.20
2015,06,23,12,54,20.10
2015,06,23,12,55,19.90
2015,06,23,12,56,19.90
2015,06,23,12,57,19.80
2015,06,23,12,58,19.70
2015,06,23,12,59,19.60
2015,06,23,13,00,19.60
2015,06,23,13,01,19.60
2015,06,23,13,02,19.50
2015,06,23,13,03,19.40
2015,06,23,13,04,19.50
2015,06,23,13,05,19.50
2015,06,23,13,06,19.60
2015,06,23,13,07,19.80
2015,06,23,13,08,20.00
2015,06,23,13,09,20.10
2015,06,23,13,10,20.30
2015,06,23,13,11,20.50
2015,06,23,13,12,20.70
2015,06,23,13,13,20.70
2015,06,23,13,14,20.70
2015,06,23,13,15,20.50
2015,06,23,13,16,20.20
2015,06,23,13,17,19.90
2015,06,23,13,18,19.80
2015,06,23,13,19,19.70
2015,06,23,13,20,19.70
2015,06,23,13,21,19.70
2015,06,23,13,22,19.70
2015,06,23,13,23,19.80
2015,06,23,13,24,19.80
2015,06,23,13,25,19.70
2015,06,23,13,26,19.80
2015,06,23,13,27,19.80
2015,06,23,13,28,19.70
2015,06,23,13,29,19.50
2015,06,23,13,30,19.50
2015,06,23,13,31,19.60
2015,06,23,13,32,19.70
2015,06,23,13,33,19.80
2015,06,23,13,34,19.60
2015,06,23,13,35,19.70
2015,06,23,13,36,19.90
2015,06,23,13,37,19.90
2015,06,23,13,38,20.00
2015,06,23,13,39,20.20
2015,06,23,13,40,20.30
2015,06,23,13,41,20.30
2015,06,23,13,42,20.20
2015,06,23,13,43,20.20
2015,06,23,13,44,20.10
2015,06,23,13,45,19.90
2015,06,23,13,46,19.90
2015,06,23,13,47,19.90
2015,06,23,13,48,19.90
2015,06,23,13,49,20.00
2015,06,23,13,50,20.20
2015,06,23,13,51,20.20
2015,06,23,13,52,20.00
2015,06,23,13,53,19.80
2015,06,23,13,54,19.70
2015,06,23,13,55,19.70
2015,06,23,13,56,19.90
2015,06,23,13,57,20.10
2015,06,23,13,58,20.40
2015,06,23,13,59,20.70
2015,06,23,14,00,20.90
2015,06,23,14,01,20.80
2015,06,23,14,02,20.80
2015,06,23,14,03,20.90
2015,06,23,14,04,20.90
2015,06,23,14,05,21.00
2015,06,23,14,06,21.00
2015,06,23,14,07,21.00
2015,06,23,14,08,20.90
2015,06,23,14,09,20.80
2015,06,23,14,10,20.80
2015,06,23,14,11,20.90
2015,06,23,14,12,20.90
2015,06,23,14,13,20.80
2015,06,23,14,14,20.50
2015,06,23,14,15,20.40
2015,06,23,14,16,20.50
2015,06,23,14,17,20.60
2015,06,23,14,18,20.60
2015,06,23,14,19,20.70
2015,06,23,14,20,20.60
2015,06,23,14,21,20.70
2015,06,23,14,22,20.80
2015,06,23,14,23,20.80
2015,06,23,14,24,20.70
2015,06,23,14,25,20.70
2015,06,23,14,26,20.80
2015,06,23,14,27,20.80
2015,06,23,14,28,20.90
2015,06,23,14,29,20.90
2015,06,23,14,30,20.90
2015,06,23,14,31,20.90
2015,06,23,14,32,20.90
2015,06,23,14,33,21.00
2015,06,23,14,34,21.00
2015,06,23,14,35,20.90
2015,06,23,14,36,20.80
2015,06,23,14,37,21.00
2015,06,23,14,38,21.00
2015,06,23,14,39,20.80
2015,06,23,14,40,20.80
2015,06,23,14,41,20.80
2015,06,23,14,42,20.80
2015,06,23,14,43,20.70
2015,06,23,14,44,20.70
2015,06,23,14,45,20.60
2015,06,23,14,46,20.60
2015,06,23,14,47,20.60
2015,06,23,14,48,20.50
2015,06,23,14,49,20.60
2015,06,23,14,50,20.70
2015,06,23,14,51,20.60
2015,06,23,14,52,20.40
2015,06,23,14,53,20.20
2015,06,23,14,54,20.20
2015,06,23,14,55,20.40
2015,06,23,14,56,20.50
2015,06,23,14,57,20.50
2015,06,23,14,58,20.50
2015,06,23,14,59,20.60
2015,06,23,15,00,20.80
2015,06,23,15,01,21.00
2015,06,23,15,02,21.20
2015,06,23,15,03,21.30
2015,06,23,15,04,21.30
2015,06,23,15,05,21.30
2015,06,23,15,06,21.20
2015,06,23,15,07,21.20
2015,06,23,15,08,21.30
2015,06,23,15,09,21.50
2015,06,23,15,10,21.70
2015,06,23,15,11,21.80
2015,06,23,15,12,21.90
2015,06,23,15,13,22.00
2015,06,23,15,14,22.00
2015,06,23,15,15,21.90
2015,06,23,15,16,22.00
2015,06,23,15,17,22.10
2015,06,23,15,18,22.30
2015,06,23,15,19,22.40
2015,06,23,15,20,22.60
2015,06,23,15,21,22.60
2015,06,23,15,22,22.60
2015,06,23,15,23,22.60
2015,06,23,15,24,22.70
2015,06,23,15,25,22.70
2015,06,23,15,26,22.60
2015,06,23,15,27,22.50
2015,06,23,15,28,22.30
2015,06,23,15,29,22.20
2015,06,23,15,30,22.30
2015,06,23,15,31,22.30
2015,06,23,15,32,22.30
2015,06,23,15,33,22.40
2015,06,23,15,34,22.40
2015,06,23,15,35,22.40
2015,06,23,15,36,22.40
2015,06,23,15,37,22.40
2015,06,23,15,38,22.30
2015,06,23,15,39,22.40
2015,06,23,15,40,22.50
2015,06,23,15,41,22.50
2015,06,23,15,42,22.50
2015,06,23,15,43,22.50
2015,06,23,15,44,22.60
2015,06,23,15,45,22.60
2015,06,23,15,46,22.60
2015,06,23,15,47,22.80
2015,06,23,15,48,22.60
2015,06,23,15,49,22.50
2015,06,23,15,50,22.50
2015,06,23,15,51,22.50
2015,06,23,15,52,22.50
2015,06,23,15,53,22.30
2015,06,23,15,54,22.30
2015,06,23,15,55,22.20
2015,06,23,15,56,22.10
2015,06,23,15,57,22.00
2015,06,23,15,58,22.00
2015,06,23,15,59,21.90
2015,06,23,16,00,21.90
2015,06,23,16,01,21.80
2015,06,23,16,02,21.80
2015,06,23,16,03,21.90
2015,06,23,16,04,22.00
2015,06,23,16,05,22.00
2015,06,23,16,06,22.00
2015,06,23,16,07,22.00
2015,06,23,16,08,22.00
2015,06,23,16,09,22.00
2015,06,23,16,10,22.00
2015,06,23,16,11,22.00
2015,06,23,16,12,22.00
2015,06,23,16,13,22.10
2015,06,23,16,14,22.20
2015,06,23,16,15,22.30
2015,06,23,16,16,22.30
2015,06,23,16,17,22.30
2015,06,23,16,18,22.40
2015,06,23,16,19,22.50
2015,06,23,16,20,22.50
2015,06,23,16,21,22.50
2015,06,23,16,22,22.50
2015,06,23,16,23,22.60
2015,06,23,16,24,22.60
2015,06,23,16,25,22.50
2015,06,23,16,26,22.30
2015,06,23,16,27,22.30
2015,06,23,16,28,22.30
2015,06,23,16,29,22.30
2015,06,23,16,30,22.50
2015,06,23,16,31,22.60
2015,06,23,16,32,22.70
2015,06,23,16,33,22.90
2015,06,23,16,34,23.00
2015,06,23,16,35,23.10
2015,06,23,16,36,23.30
2015,06,23,16,37,23.40
2015,06,23,16,38,23.40
2015,06,23,16,39,23.30
2015,06,23,16,40,23.20
2015,06,23,16,41,23.20
2015,06,23,16,42,23.30
2015,06,23,16,43,23.30
2015,06,23,16,44,23.30
2015,06,23,16,45,23.30
2015,06,23,16,46,23.30
2015,06,23,16,47,23.30
2015,06,23,16,48,23.40
2015,06,23,16,49,23.40
2015,06,23,16,50,23.60
2015,06,23,16,51,23.70
2015,06,23,16,52,23.90
2015,06,23,16,53,23.90
2015,06,23,16,54,23.90
2015,06,23,16,55,23.90
2015,06,23,16,56,23.90
2015,06,23,16,57,23.90
2015,06,23,16,58,24.00
2015,06,23,16,59,24.10
2015,06,23,17,00,24.10
2015,06,23,17,01,24.20
2015,06,23,17,02,24.30
2015,06,23,17,03,24.40
2015,06,23,17,04,24.40
2015,06,23,17,05,24.40
2015,06,23,17,06,24.40
2015,06,23,17,07,24.40
2015,06,23,17,08,24.40
2015,06,23,17,09,24.40
2015,06,23,17,10,24.30
2015,06,23,17,11,24.30
2015,06,23,17,12,24.30
2015,06,23,17,13,24.50
2015,06,23,17,14,24.60
2015,06,23,17,15,24.70
2015,06,23,17,16,24.70
2015,06,23,17,17,24.60
2015,06,23,17,18,24.70
2015,06,23,17,19,24.70
2015,06,23,17,20,24.60
2015,06,23,17,21,24.60
2015,06,23,17,22,24.60
2015,06,23,17,23,24.70
2015,06,23,17,24,24.70
2015,06,23,17,25,24.70
2015,06,23,17,26,24.80
2015,06,23,17,27,24.80
2015,06,23,17,28,24.90
2015,06,23,17,29,24.80
2015,06,23,17,30,24.80
2015,06,23,17,31,24.80
2015,06,23,17,32,24.80
2015,06,23,17,33,24.70
2015,06,23,17,34,24.70
2015,06,23,17,35,24.60
2015,06,23,17,36,24.60
2015,06,23,17,37,24.50
2015,06,23,17,38,24.50
2015,06,23,17,39,24.50
2015,06,23,17,40,24.50
2015,06,23,17,41,24.60
2015,06,23,17,42,24.70
2015,06,23,17,43,24.80
2015,06,23,17,44,24.90
2015,06,23,17,45,24.90
2015,06,23,17,46,24.80
2015,06,23,17,47,24.70
2015,06,23,17,48,24.70
2015,06,23,17,49,24.70
2015,06,23,17,50,24.70
2015,06,23,17,51,24.50
2015,06,23,17,52,24.50
2015,06,23,17,53,24.30
2015,06,23,17,54,24.30
2015,06,23,17,55,24.30
2015,06,23,17,56,24.20
2015,06,23,17,57,24.30
2015,06,23,17,58,24.30
2015,06,23,17,59,24.30
2015,06,23,18,00,24.20
2015,06,23,18,01,24.20
2015,06,23,18,02,24.20
2015,06,23,18,03,24.20
2015,06,23,18,04,24.20
2015,06,23,18,05,24.20
2015,06,23,18,06,24.20
2015,06,23,18,07,24.20
2015,06,23,18,08,24.10
2015,06,23,18,09,24.00
2015,06,23,18,10,24.00
2015,06,23,18,11,24.00
2015,06,23,18,12,24.10
2015,06,23,18,13,24.10
2015,06,23,18,14,24.10
2015,06,23,18,15,24.10
2015,06,23,18,16,24.00
2015,06,23,18,17,23.90
2015,06,23,18,18,23.90
2015,06,23,18,19,23.90
2015,06,23,18,20,23.90
2015,06,23,18,21,23.80
2015,06,23,18,22,23.80
2015,06,23,18,23,23.80
2015,06,23,18,24,23.90
2015,06,23,18,25,23.90
2015,06,23,18,26,23.90
2015,06,23,18,27,23.90
2015,06,23,18,28,23.90
2015,06,23,18,29,23.90
2015,06,23,18,30,23.70
2015,06,23,18,31,23.70
2015,06,23,18,32,23.60
2015,06,23,18,33,23.60
2015,06,23,18,34,23.70
2015,06,23,18,35,23.70
2015,06,23,18,36,23.60
2015,06,23,18,37,23.60
2015,06,23,18,38,23.60
2015,06,23,18,39,23.60
2015,06,23,18,40,23.60
2015,06,23,18,41,23.60
2015,06,23,18,42,23.60
2015,06,23,18,43,23.60
2015,06,23,18,44,23.60
2015,06,23,18,45,23.70
2015,06,23,18,46,23.70
2015,06,23,18,47,23.70
2015,06,23,18,48,23.70
2015,06,23,18,49,23.70
2015,06,23,18,50,23.60
2015,06,23,18,51,23.60
2015,06,23,18,52,23.60
2015,06,23,18,53,23.60
2015,06,23,18,54,23.60
2015,06,23,18,55,23.60
2015,06,23,18,56,23.50
2015,06,23,18,57,23.40
2015,06,23,18,58,23.40
2015,06,23,18,59,23.40
2015,06,23,19,00,23.30
2015,06,23,19,01,23.30
2015,06,23,19,02,23.30
2015,06,23,19,03,23.20
2015,06,23,19,04,23.20
2015,06,23,19,05,23.20
2015,06,23,19,06,23.20
2015,06,23,19,07,23.30
2015,06,23,19,08,23.20
2015,06,23,19,09,23.20
2015,06,23,19,10,23.20
2015,06,23,19,11,23.10
2015,06,23,19,12,23.10
2015,06,23,19,13,22.90
2015,06,23,19,14,22.90
2015,06,23,19,15,22.90
2015,06,23,19,16,22.80
2015,06,23,19,17,22.70
2015,06,23,19,18,22.60
2015,06,23,19,19,22.60
2015,06,23,19,20,22.50
2015,06,23,19,21,22.50
2015,06,23,19,22,22.50
2015,06,23,19,23,22.60
2015,06,23,19,24,22.60
2015,06,23,19,25,22.60
2015,06,23,19,26,22.60
2015,06,23,19,27,22.60
2015,06,23,19,28,22.60
2015,06,23,19,29,22.60
2015,06,23,19,30,22.60
2015,06,23,19,31,22.60
2015,06,23,19,32,22.60
2015,06,23,19,33,22.60
2015,06,23,19,34,22.60
2015,06,23,19,35,22.60
2015,06,23,19,36,22.70
2015,06,23,19,37,22.70
2015,06,23,19,38,22.70
2015,06,23,19,39,22.70
2015,06,23,19,40,22.60
2015,06,23,19,41,22.60
2015,06,23,19,42,22.60
2015,06,23,19,43,22.60
2015,06,23,19,44,22.60
2015,06,23,19,45,22.60
2015,06,23,19,46,22.60
2015,06,23,19,47,22.50
2015,06,23,19,48,22.40
2015,06,23,19,49,22.40
2015,06,23,19,50,22.30
2015,06,23,19,51,22.30
2015,06,23,19,52,22.30
2015,06,23,19,53,22.30
2015,06,23,19,54,22.20
2015,06,23,19,55,22.20
2015,06,23,19,56,22.10
2015,06,23,19,57,22.10
2015,06,23,19,58,22.10
2015,06,23,19,59,22.10
2015,06,23,20,00,22.10
2015,06,23,20,01,22.00
2015,06,23,20,02,22.00
2015,06,23,20,03,22.00
2015,06,23,20,04,21.90
2015,06,23,20,05,21.90
2015,06,23,20,06,21.80
2015,06,23,20,07,21.70
2015,06,23,20,08,21.70
2015,06,23,20,09,21.70
2015,06,23,20,10,21.60
2015,06,23,20,11,21.60
2015,06,23,20,12,21.60
2015,06,23,20,13,21.60
2015,06,23,20,14,21.50
2015,06,23,20,15,21.40
2015,06,23,20,16,21.40
2015,06,23,20,17,21.40
2015,06,23,20,18,21.40
2015,06,23,20,19,21.30
2015,06,23,20,20,21.30
2015,06,23,20,21,21.30
2015,06,23,20,22,21.30
2015,06,23,20,23,21.30
2015,06,23,20,24,21.30
2015,06,23,20,25,21.30
2015,06,23,20,26,21.20
2015,06,23,20,27,21.20
2015,06,23,20,28,21.20
2015,06,23,20,29,21.10
2015,06,23,20,30,21.10
2015,06,23,20,31,21.00
2015,06,23,20,32,21.00
2015,06,23,20,33,20.90
2015,06,23,20,34,20.80
2015,06,23,20,35,20.80
2015,06,23,20,36,20.80
2015,06,23,20,37,20.70
2015,06,23,20,38,20.70
2015,06,23,20,39,20.70
2015,06,23,20,40,20.60
2015,06,23,20,41,20.60
2015,06,23,20,42,20.60
2015,06,23,20,43,20.50
2015,06,23,20,44,20.50
2015,06,23,20,45,20.50
2015,06,23,20,46,20.50
2015,06,23,20,47,20.40
2015,06,23,20,48,20.40
2015,06,23,20,49,20.30
2015,06,23,20,50,20.30
2015,06,23,20,51,20.30
2015,06,23,20,52,20.20
2015,06,23,20,53,20.20
2015,06,23,20,54,20.20
2015,06,23,20,55,20.20
2015,06,23,20,56,20.20
2015,06,23,20,57,20.20
2015,06,23,20,58,20.20
2015,06,23,20,59,20.20
2015,06,23,21,00,20.20
2015,06,23,21,01,20.20
2015,06,23,21,02,20.10
2015,06,23,21,03,20.10
2015,06,23,21,04,20.10
2015,06,23,21,05,20.10
2015,06,23,21,06,20.10
2015,06,23,21,07,20.10
2015,06,23,21,08,20.10
2015,06,23,21,09,20.10
2015,06,23,21,10,19.90
2015,06,23,21,11,19.90
2015,06,23,21,12,19.90
2015,06,23,21,13,19.90
2015,06,23,21,14,19.90
2015,06,23,21,15,19.90
2015,06,23,21,16,19.90
2015,06,23,21,17,19.90
2015,06,23,21,18,19.90
2015,06,23,21,19,19.80
2015,06,23,21,20,19.80
2015,06,23,21,21,19.80
2015,06,23,21,22,19.80
2015,06,23,21,23,19.80
2015,06,23,21,24,19.80
2015,06,23,21,25,19.80
2015,06,23,21,26,19.80
2015,06,23,21,27,19.80
2015,06,23,21,28,19.80
2015,06,23,21,29,19.80
2015,06,23,21,30,19.80
2015,06,23,21,31,19.80
2015,06,23,21,32,19.70
2015,06,23,21,33,19.70
2015,06,23,21,34,19.70
2015,06,23,21,35,19.70
2015,06,23,21,36,19.70
2015,06,23,21,37,19.70
2015,06,23,21,38,19.60
2015,06,23,21,39,19.60
2015,06,23,21,40,19.60
2015,06,23,21,41,19.60
2015,06,23,21,42,19.60
2015,06,23,21,43,19.60
2015,06,23,21,44,19.60
2015,06,23,21,45,19.60
2015,06,23,21,46,19.60
2015,06,23,21,47,19.60
2015,06,23,21,48,19.50
2015,06,23,21,49,19.50
2015,06,23,21,50,19.50
2015,06,23,21,51,19.50
2015,06,23,21,52,19.50
2015,06,23,21,53,19.40
2015,06,23,21,54,19.40
2015,06,23,21,55,19.40
2015,06,23,21,56,19.40
2015,06,23,21,57,19.40
2015,06,23,21,58,19.40
2015,06,23,21,59,19.40
2015,06,23,22,00,19.40
2015,06,23,22,01,19.40
2015,06,23,22,02,19.40
2015,06,23,22,03,19.40
2015,06,23,22,04,19.40
2015,06,23,22,05,19.50
2015,06,23,22,06,19.50
2015,06,23,22,07,19.50
2015,06,23,22,08,19.50
2015,06,23,22,09,19.50
2015,06,23,22,10,19.50
2015,06,23,22,11,19.50
2015,06,23,22,12,19.50
2015,06,23,22,13,19.50
2015,06,23,22,14,19.50
2015,06,23,22,15,19.50
2015,06,23,22,16,19.50
2015,06,23,22,17,19.60
2015,06,23,22,18,19.60
2015,06,23,22,19,19.60
2015,06,23,22,20,19.60
2015,06,23,22,21,19.60
2015,06,23,22,22,19.60
2015,06,23,22,23,19.70
2015,06,23,22,24,19.70
2015,06,23,22,25,19.70
2015,06,23,22,26,19.70
2015,06,23,22,27,19.70
2015,06,23,22,28,19.70
2015,06,23,22,29,19.70
2015,06,23,22,30,19.70
2015,06,23,22,31,19.70
2015,06,23,22,32,19.60
2015,06,23,22,33,19.60
2015,06,23,22,34,19.60
2015,06,23,22,35,19.60
2015,06,23,22,36,19.60
2015,06,23,22,37,19.60
2015,06,23,22,38,19.60
2015,06,23,22,39,19.60
2015,06,23,22,40,19.60
2015,06,23,22,41,19.60
2015,06,23,22,42,19.50
2015,06,23,22,43,19.50
2015,06,23,22,44,19.50
2015,06,23,22,45,19.50
2015,06,23,22,46,19.50
2015,06,23,22,47,19.50
2015,06,23,22,48,19.50
2015,06,23,22,49,19.50
2015,06,23,22,50,19.50
2015,06,23,22,51,19.40
2015,06,23,22,52,19.40
2015,06,23,22,53,19.40
2015,06,23,22,54,19.40
2015,06,23,22,55,19.40
2015,06,23,22,56,19.40
2015,06,23,22,57,19.40
2015,06,23,22,58,19.40
2015,06,23,22,59,19.40
2015,06,23,23,00,19.40
2015,06,23,23,01,19.40
2015,06,23,23,02,19.40
2015,06,23,23,03,19.30
2015,06,23,23,04,19.30
2015,06,23,23,05,19.30
2015,06,23,23,06,19.30
2015,06,23,23,07,19.30
2015,06,23,23,08,19.30
2015,06,23,23,09,19.30
2015,06,23,23,10,19.30
2015,06,23,23,11,19.30
2015,06,23,23,12,19.30
2015,06,23,23,13,19.30
2015,06,23,23,14,19.30
2015,06,23,23,15,19.30
2015,06,23,23,16,19.30
2015,06,23,23,17,19.30
